sat.trackr.live / text

‹ back to catalog

STARLINK-31580

NORAD 59434 · 2024-065P

PAYLOAD ACTIVE UNKNOWN

§ Identity

Operator
Country
US
Launch date
2024-04-07
Launch site
AFWTR
Launch vehicle
Mass (kg)
RCS (m²)

Purposes: comms

External: N2YO · Heavens-Above · Gunter

§ Orbital elements

Epoch: 2026-05-25T02:52:16.639392Z

Period
94.11 min
Inclination
53.1612°
Eccentricity
0.0001139
Mean motion
15.30194664 rev/d
Perigee alt
474.5 km
Apogee alt
476.0 km
Semi-major
6,853.4 km
B*
3.3263e-6
RAAN
288.6226°
Arg perigee
91.8700°
Mean anomaly
268.2431°
Rev number
12,060

§ Raw data

STARLINK-315801 59434U 24065P   26145.11963703 -.00000261  00000+0  33263-5 0  99912 59434  53.1612 288.6226 0001139  91.8700 268.2431 15.30194664120602

JSON: /api/v1/satellites/59434 · /tle

For live sub-satellite position, see the globe view (requires WebGL).

§ Visibility from observer

Set your observer location to see the next 7 days of passes ≥ 10°. The values pass through the URL so the page stays shareable.

No JS? Fill the form by hand. The geolocation button needs JavaScript.